Date String (YYYY-MM-DD hh:mm:ss) UTC,Instrument flags,absolute air pressure of the measurement (hPa),sample flow rate (lpm),inlet stack bypass flow (lpm),air temperature of the measurement (°C),ambient temperature measured by the external sensor (°C),aerosol sample conditioner tube jacket temperature (°C),OPC LED temperature (°C),internal box temperature (°C),relative humidity of the measurement (%),span deviation,mass concentration of particles derived from Lorenz-Mie calculation of OPC scattering (μg/m³),mass concentration of particles derived from Lorenz-Mie calculation of OPC scattering (μg/m³),mass concentration of particles derived from Lorenz-Mie calculation of OPC scattering (μg/m³)
DateTimeUTC,F1_M11,P_M11,Q1_M11,Q2_M11,T1_M11,T2_M11,T3_M11,T4_M11,T5_M11,U1_M11,ZSPAN_M11,X0_M11,X2_M11,X1_M11
2023-09-13 07:00:00,SystemResetWarning,0831.6,5.00,000.00,028.4,027.1,000.0,036.8,030.0,19.2,0001.6,0010.17,0004.83,0004.49
2023-09-13 07:01:00,SystemResetWarning,0831.6,5.02,000.00,028.4,027.1,000.0,036.8,030.0,19.0,0001.7,0009.34,0004.80,0004.49
2023-09-13 07:02:00,SystemResetWarning,0831.6,4.99,000.00,028.5,027.1,000.0,036.8,030.0,18.9,0002.0,0009.18,0004.78,0004.49
2023-09-13 07:03:00,SystemResetWarning,0831.6,4.99,000.00,028.5,027.2,000.0,036.8,030.1,18.9,0002.1,0008.95,0004.79,0004.50
2023-09-13 07:04:00,SystemResetWarning,0831.6,5.00,000.00,028.5,027.2,000.0,036.8,030.1,18.9,0002.1,0008.84,0004.81,0004.50
2023-09-13 07:05:00,SystemResetWarning,0831.6,5.01,000.00,028.5,027.2,000.0,036.8,030.1,18.7,0001.6,0008.10,0004.84,0004.50
2023-09-13 07:06:00,SystemResetWarning,0831.6,5.00,000.00,028.5,027.2,000.0,036.8,030.1,18.3,0002.5,0007.94,0004.82,0004.50
2023-09-13 07:07:00,SystemResetWarning,0831.6,4.99,000.00,028.5,027.2,000.0,036.8,030.1,18.4,0002.5,0008.12,0004.84,0004.51
2023-09-13 07:08:00,SystemResetWarning,0831.6,4.99,000.00,028.6,027.2,000.0,036.9,030.1,18.2,0002.6,0008.59,0004.85,0004.50
2023-09-13 07:09:00,SystemResetWarning,0831.6,5.01,000.00,028.6,027.2,000.0,036.9,030.1,18.3,0002.5,0008.62,0004.86,0004.49
2023-09-13 07:10:00,SystemResetWarning,0831.6,5.00,000.00,028.6,027.2,000.0,036.9,030.1,18.4,0002.5,0008.53,0004.91,0004.49
2023-09-13 07:11:00,SystemResetWarning,0831.5,5.01,000.00,028.6,027.2,000.0,036.9,030.1,18.4,0002.8,0008.60,0004.92,0004.49
2023-09-13 07:12:00,SystemResetWarning,0831.5,5.00,000.00,028.6,027.2,000.0,036.9,030.2,18.3,0002.5,0008.61,0004.90,0004.47
2023-09-13 07:13:00,SystemResetWarning,0831.5,5.00,000.00,028.6,027.3,000.0,036.9,030.2,18.3,0002.0,0009.44,0004.91,0004.46
2023-09-13 07:14:00,SystemResetWarning,0831.5,5.00,000.00,028.6,027.3,000.0,036.9,030.2,18.2,0001.6,0010.30,0004.90,0004.45
2023-09-13 07:15:00,SystemResetWarning,0831.5,5.00,000.00,028.6,027.3,000.0,036.9,030.2,18.2,0001.6,0010.60,0004.88,0004.44
2023-09-13 07:16:00,SystemResetWarning,0831.5,5.00,000.00,028.6,027.3,000.0,037.0,030.2,18.2,0001.8,0010.72,0004.86,0004.42
2023-09-13 07:17:00,SystemResetWarning,0831.5,4.99,000.00,028.7,027.3,000.0,037.0,030.2,18.2,0001.7,0010.91,0004.87,0004.43
2023-09-13 07:18:00,SystemResetWarning,0831.5,5.00,000.00,028.7,027.3,000.0,037.0,030.2,18.0,0001.5,0011.02,0004.85,0004.42
2023-09-13 07:19:00,SystemResetWarning,0831.5,5.01,000.00,028.7,027.3,000.0,037.0,030.2,18.2,0001.1,0010.60,0004.83,0004.41
2023-09-13 07:20:00,SystemResetWarning,0831.5,5.01,000.00,028.7,027.3,000.0,037.0,030.3,18.1,0000.7,0010.45,0004.83,0004.40
2023-09-13 07:21:00,SystemResetWarning,0831.5,5.00,000.00,028.7,027.3,000.0,037.0,030.3,18.2,0000.6,0010.28,0004.78,0004.39
2023-09-13 07:22:00,SystemResetWarning,0831.5,5.00,000.00,028.7,027.3,000.0,037.0,030.3,18.1,-000.2,0010.20,0004.77,0004.39
2023-09-13 07:23:00,SystemResetWarning,0831.5,5.00,000.00,028.7,027.4,000.0,037.0,030.3,18.2,0000.1,0010.15,0004.76,0004.40
2023-09-13 07:24:00,SystemResetWarning,0831.5,5.00,000.00,028.7,027.4,000.0,037.0,030.3,18.2,0000.2,0009.46,0004.76,0004.40
2023-09-13 07:25:00,SystemResetWarning,0831.5,4.99,000.00,028.8,027.4,000.0,037.0,030.3,18.2,0000.5,0008.47,0004.75,0004.40
2023-09-13 07:26:00,SystemResetWarning,0831.4,5.00,000.00,028.8,027.4,000.0,037.1,030.4,18.1,0000.6,0008.59,0004.80,0004.39
2023-09-13 07:27:00,SystemResetWarning,0831.5,5.00,000.00,028.8,027.4,000.0,037.1,030.4,18.1,0000.2,0008.93,0004.82,0004.40
2023-09-13 07:28:00,SystemResetWarning,0831.5,5.01,000.00,028.8,027.4,000.0,037.1,030.4,18.0,0000.0,0008.77,0004.80,0004.39
2023-09-13 07:29:00,SystemResetWarning,0831.4,5.00,000.00,028.8,027.4,000.0,037.1,030.4,17.9,0000.0,0008.51,0004.79,0004.38
2023-09-13 07:30:00,SystemResetWarning,0831.4,5.00,000.00,028.8,027.4,000.0,037.1,030.4,18.1,0000.0,0008.65,0004.76,0004.38
2023-09-13 07:31:00,SystemResetWarning,0831.5,5.00,000.00,028.8,027.4,000.0,037.1,030.4,18.0,0000.0,0008.78,0004.76,0004.38
2023-09-13 07:32:00,SystemResetWarning,0831.5,5.01,000.00,028.8,027.4,000.0,037.1,030.4,18.1,0000.0,0009.05,0004.76,0004.37
2023-09-13 07:33:00,SystemResetWarning,0831.5,5.00,000.00,028.8,027.4,000.0,037.1,030.4,18.0,0000.0,0009.25,0004.76,0004.37
2023-09-13 07:34:00,SystemResetWarning,0831.4,5.00,000.00,028.8,027.4,000.0,037.2,030.4,18.0,0000.0,0009.28,0004.76,0004.36
2023-09-13 07:35:00,SystemResetWarning,0831.5,4.99,000.00,028.9,027.4,000.0,037.2,030.4,18.3,0000.0,0009.40,0004.78,0004.36
2023-09-13 07:36:00,SystemResetWarning,0831.5,5.00,000.00,028.9,027.5,000.0,037.2,030.4,18.6,0000.0,0009.57,0004.81,0004.34
2023-09-13 07:37:00,SystemResetWarning,0831.5,5.01,000.00,028.9,027.5,000.0,037.2,030.4,18.1,0000.0,0009.22,0004.75,0004.32
2023-09-13 07:38:00,SystemResetWarning,0831.5,5.01,000.00,028.9,027.5,000.0,037.2,030.4,18.3,0000.3,0009.27,0004.73,0004.31
2023-09-13 07:39:00,SystemResetWarning,0831.5,5.01,000.00,028.9,027.5,000.0,037.2,030.5,19.0,0000.7,0010.36,0004.75,0004.30
2023-09-13 07:40:00,SystemResetWarning,0831.5,5.00,000.00,028.9,027.5,000.0,037.2,030.5,18.8,0000.7,0010.44,0004.75,0004.28
2023-09-13 07:41:00,SystemResetWarning,0831.5,5.00,000.00,028.9,027.5,000.0,037.2,030.5,18.9,0001.2,0010.27,0004.77,0004.26
2023-09-13 07:42:00,SystemResetWarning,0831.5,4.99,000.00,028.9,027.6,000.0,037.2,030.6,19.5,0001.0,0010.09,0004.74,0004.23
2023-09-13 07:43:00,SystemResetWarning,0831.5,5.00,000.00,028.9,027.6,000.0,037.2,030.6,19.5,0001.3,0009.77,0004.68,0004.20
2023-09-13 07:44:00,SystemResetWarning,0831.5,5.00,000.00,029.0,027.6,000.0,037.2,030.6,19.5,0001.1,0009.45,0004.63,0004.17
2023-09-13 07:45:00,SystemResetWarning,0831.5,4.99,000.00,029.0,027.6,000.0,037.3,030.6,19.4,0001.3,0009.96,0004.61,0004.16
2023-09-13 07:46:00,SystemResetWarning,0831.5,5.00,000.00,029.0,027.6,000.0,037.3,030.6,19.4,0001.8,0010.96,0004.57,0004.14
2023-09-13 07:47:00,SystemResetWarning,0831.5,5.00,000.00,029.0,027.6,000.0,037.3,030.6,19.3,0002.0,0010.81,0004.52,0004.12
2023-09-13 07:48:00,SystemResetWarning,0831.5,5.00,000.00,029.0,027.7,000.0,037.3,030.6,18.9,0000.4,0010.75,0004.50,0004.13
2023-09-13 07:49:00,SystemResetWarning,0831.4,5.00,000.00,029.0,027.7,000.0,037.3,030.7,18.8,0000.0,0010.16,0004.47,0004.11
2023-09-13 07:50:00,SystemResetWarning,0831.4,5.00,000.00,029.0,027.7,000.0,037.3,030.7,18.8,0000.0,0009.60,0004.45,0004.11
2023-09-13 07:51:00,SystemResetWarning,0831.4,5.00,000.00,029.0,027.7,000.0,037.3,030.7,18.2,0000.0,0009.31,0004.41,0004.09
2023-09-13 07:52:00,SystemResetWarning,0831.4,5.00,000.00,029.0,027.7,000.0,037.3,030.7,18.1,0000.0,0009.53,0004.40,0004.09
2023-09-13 07:53:00,SystemResetWarning,0831.4,5.00,000.00,029.0,027.4,000.0,037.3,030.6,17.9,0000.0,0010.11,0004.40,0004.09
2023-09-13 07:54:00,SystemResetWarning,0831.3,4.99,000.00,029.0,025.5,000.0,037.2,030.3,17.9,0000.0,0010.14,0004.41,0004.08
2023-09-13 07:55:00,SystemResetWarning,0831.3,5.01,000.00,028.9,024.5,000.0,037.1,030.1,17.9,0000.0,0010.16,0004.41,0004.08
2023-09-13 07:56:00,SystemResetWarning,0831.3,5.01,000.00,028.8,024.5,000.0,037.1,029.8,18.1,0000.0,0010.12,0004.40,0004.07
2023-09-13 07:57:00,SystemResetWarning,0831.3,5.01,000.00,028.6,024.7,000.0,037.1,029.7,18.2,0000.0,0008.66,0004.39,0004.06
2023-09-13 07:58:00,SystemResetWarning,0831.3,5.00,000.00,028.5,025.1,000.0,037.1,029.6,18.6,0000.0,0008.49,0004.43,0004.08
2023-09-13 07:59:00,SystemResetWarning,0831.3,5.00,000.00,028.5,025.4,000.0,037.0,029.7,19.0,0000.0,0008.51,0004.43,0004.07
